Temp
93 92 90 89 90 91 91 92 92 91 89 90 89 89 86 84 79 79 80 83 87 92 97 94 91 94 93 91 95 93 93 91 91 93 91 91 90 83 74 74 73 73 73 73 73 73 74 74 74 74 75 75 76 76 76 75 76 76 76 76 76 77 77 75 75 75 75 74 74 74 74 74 74 75
90 91 92 91 90 91 91 92 93 91 89 89 89 88 88 86 82 81 79 80 87 89 94 97 94 90 91 94 92 93 92 86 89 92 92 92 93 81 76 74 73 73 72 72 72 72 73 73 73 73 73 73 74 75 75 75 75 75 75 75 76 76 76 75 75 75 74 74 74 74 74 74 74 74
91 89 90 90 90 91 92 92 94 92 90 89 89 89 88 87 85 83 82 79 86 91 88 93 98 96 93 96 95 95 94 90 90 91 91 91 85 79 82 75 74 73 72 71 71 71 70 70 71 71 71 72 72 73 74 75 75 75 74 75 75 75 75 75 74 74 74 74 74 73 73 73 73 73
90 89 89 89 89 90 90 90 92 91 90 90 90 89 88 87 86 85 82 80 81 89 91 91 93 96 95 95 93 91 92 92 83 91 91 90 83 88 91 81 74 73 71 71 71 70 69 69 70 71 71 72 72 73 73 73 73 73 74 74 74 75 75 73 73 74 74 74 73 73 73 73 73 73
90 88 88 89 89 90 89 90 91 92 91 90 90 89 89 88 87 85 83 81 81 86 91 92 93 95 94 94 93 92 93 92 93 87 90 89 90 91 91 92 81 74 72 71 70 70 69 69 69 70 71 72 72 73 73 73 72 72 72 72 72 72 73 72 72 73 73 73 73 73 73 72 72 72
90 89 87 88 89 90 89 90 91 92 93 92 91 90 89 89 88 87 84 83 82 82 88 89 92 92 94 89 92 90 91 92 91 91 92 93 91 90 91 91 93 78 73 71 70 69 69 69 69 69 70 70 71 72 72 72 70 71 71 70 69 70 69 70 71 72 72 72 73 73 73 72 72 72
89 88 88 89 90 91 89 89 90 92 91 93 91 91 91 89 89 89 86 84 82 83 85 88 89 90 92 90 90 91 91 90 90 88 89 91 93 93 92 92 95 83 75 72 70 69 69 69 68 68 69 70 70 70 69 69 69 69 68 67 69 69 68 68 70 71 71 72 72 73 72 71 71 71
89 89 88 90 91 91 89 89 89 90 91 90 89 88 89 88 88 89 88 86 83 84 83 85 86 89 88 89 91 91 91 91 89 90 90 91 90 91 93 93 93 87 77 72 70 70 69 68 68 67 67 68 67 66 66 66 67 67 66 66 67 67 67 67 67 69 69 69 70 71 72 71 71 69
89 89 90 91 91 90 88 89 89 90 89 89 89 88 88 88 88 88 88 86 86 84 82 84 86 87 87 88 87 88 87 87 88 88 86 87 88 88 93 94 95 83 76 74 72 71 70 69 68 67 67 67 66 66 65 65 66 65 65 65 65 66 66 66 65 66 67 67 68 67 69 70 69 69
90 90 90 90 91 90 90 90 90 90 89 89 89 88 88 88 88 87 87 86 85 84 83 83 84 85 85 85 85 87 86 85 84 83 84 85 87 86 88 91 93 94 95 96 92 77 73 71 67 68 69 67 66 66 65 65 64 64 64 62 62 64 65 65 65 65 65 65 66 67 67 68 68 68
93 92 92 91 91 90 90 90 90 90 89 89 89 89 88 88 88 87 87 87 86 85 85 85 85 84 86 85 83 86 86 84 83 81 82 82 86 86 86 86 90 92 92 87 80 83 84 81 81 71 66 66 66 66 66 65 63 64 62 61 61 61 62 62 64 65 64 64 64 64 64 65 67 68
94 94 94 94 93 91 91 90 90 90 89 89 89 90 89 88 87 87 87 87 86 85 85 85 85 86 84 85 86 87 84 81 82 84 83 81 83 86 86 87 86 88 88 88 92 83 81 80 76 70 70 68 67 67 67 66 67 65 64 63 63 63 62 62 62 63 63 62 62 62 62 62 64 66
92 94 96 96 96 93 89 86 86 87 86 89 88 88 89 87 86 86 86 85 84 85 85 84 85 84 83 84 84 84 83 82 82 84 85 83 84 86 86 87 88 87 86 87 89 90 91 90 90 92 90 87 76 75 69 74 71 67 65 63 64 64 63 62 62 62 62 62 62 61 61 62 63 65
93 94 96 97 92 88 85 81 78 76 76 77 85 88 89 87 87 86 84 83 85 85 83 84 84 83 83 85 86 85 86 85 85 84 83 82 85 85 84 84 87 90 88 85 83 86 91 90 90 90 89 92 88 88 86 85 83 75 66 65 64 64 64 63 62 62 62 62 61 61 60 61 62 63
91 93 93 94 92 87 82 83 74 74 72 72 71 71 74 79 85 86 84 85 85 84 85 85 84 83 82 84 85 85 85 85 83 83 83 83 83 81 80 79 84 89 87 84 82 82 87 88 86 87 89 91 91 92 91 79 73 71 69 66 65 64 64 64 63 62 62 61 61 61 60 60 61 62
91 91 93 95 95 93 91 90 86 79 72 69 69 68 69 69 70 73 81 84 84 84 84 83 84 84 83 83 84 85 84 82 82 83 83 82 81 80 80 80 78 84 86 82 80 81 86 88 87 86 88 90 91 92 81 75 72 70 68 67 66 65 64 64 64 64 63 62 62 62 62 61 62 62
90 90 90 92 93 96 88 88 90 89 86 73 66 67 67 67 67 66 65 68 80 85 82 83 83 84 84 82 82 83 82 83 80 81 81 81 81 80 79 79 81 83 84 81 79 80 85 86 85 86 88 91 91 91 79 73 72 70 68 67 67 66 65 64 64 64 63 63 62 62 61 61 61 61
90 89 89 89 90 91 91 90 89 89 88 89 85 80 80 83 80 68 64 64 64 71 81 83 82 84 85 82 83 84 84 82 80 79 79 81 80 79 78 80 80 81 84 80 80 78 83 86 87 85 87 91 90 90 82 74 71 69 68 67 66 65 65 64 64 63 63 63 62 61 60 59 59 60
91 90 90 89 89 90 90 90 89 89 89 88 88 88 90 89 90 90 88 83 79 77 79 82 83 84 85 85 84 84 84 83 81 81 79 79 79 79 79 80 81 83 86 85 82 77 83 87 85 86 88 91 90 91 81 74 71 69 67 66 66 65 64 64 64 63 62 62 61 60 59 59 58 58
89 90 89 89 89 89 89 85 76 80 88 89 88 88 89 90 92 94 88 81 79 84 85 85 86 87 85 77 83 83 84 83 81 80 80 80 78 77 76 76 83 84 88 88 83 80 82 86 86 85 89 90 88 90 91 80 73 69 66 66 65 64 63 63 63 63 62 62 61 60 58 57 56 56
89 89 89 88 90 89 89 81 69 68 75 87 86 86 87 89 92 92 94 75 68 69 68 67 68 63 61 61 61 60 60 69 74 76 73 73 78 76 75 78 80 82 87 89 88 85 81 85 85 85 87 86 85 87 89 91 79 72 67 65 64 63 63 62 61 61 61 61 61 60 59 57 56 57
88 89 84 87 89 89 89 76 66 66 75 85 85 86 86 87 88 90 93 92 84 66 64 64 61 61 62 61 60 59 59 60 64 72 70 79 82 78 78 76 79 83 85 87 91 82 82 85 85 83 85 85 87 88 89 89 86 77 72 66 62 62 62 62 60 61 60 60 60 59 58 57 56 63
89 89 85 81 82 85 84 70 64 63 75 85 86 86 86 86 86 89 90 89 90 88 85 82 79 77 71 73 76 77 64 61 65 74 77 82 80 78 78 78 80 79 83 88 88 80 81 82 85 82 80 79 85 88 88 88 88 89 89 90 84 63 62 61 61 59 59 59 59 59 57 56 57 66
88 88 89 83 68 67 67 65 59 59 64 83 86 87 86 85 84 90 89 89 87 85 82 82 81 79 81 82 83 85 85 81 76 78 81 83 83 80 79 81 81 79 81 86 90 82 83 83 82 83 81 77 76 83 86 85 87 87 88 86 88 72 62 63 62 58 57 58 57 58 57 55 57 65
89 89 89 93 73 62 63 62 57 56 58 68 84 85 85 86 81 79 85 86 79 82 81 80 79 81 82 83 86 89 88 90 90 88 89 89 86 83 82 82 81 82 85 87 78 82 78 80 78 80 80 80 81 80 81 83 84 85 84 84 84 86 84 78 75 77 61 56 55 55 55 55 55 62
90 89 90 92 77 61 62 60 57 55 57 59 78 82 69 66 65 81 83 84 83 82 81 80 80 82 84 87 88 89 89 90 90 89 88 86 84 85 86 83 80 79 79 84 73 80 78 76 78 77 77 76 77 78 76 77 81 82 83 84 83 83 82 81 78 76 77 75 70 61 62 55 56 57
89 91 90 90 72 59 57 56 55 55 56 62 73 64 63 63 63 72 83 82 81 78 77 75 77 78 82 84 85 86 86 89 86 85 84 83 83 82 84 83 83 81 82 82 82 80 77 76 77 75 73 74 72 73 73 74 76 79 79 82 82 81 81 81 78 77 77 75 74 61 57 55 55 57
90 90 92 83 58 54 51 52 53 55 58 72 61 59 59 60 67 79 81 79 80 76 76 76 78 80 83 85 85 84 84 84 81 81 81 81 83 83 83 82 81 82 81 82 81 81 78 76 76 76 74 71 70 68 69 74 75 75 74 78 79 80 81 81 80 77 76 77 77 75 69 66 64 61
84 64 54 50 52 52 51 51 53 56 58 58 56 56 58 67 78 78 80 80 79 77 78 80 82 82 83 83 82 82 81 80 81 81 83 84 83 83 82 81 80 80 82 84 82 81 80 78 76 75 73 71 69 69 69 68 70 71 73 72 72 77 79 80 80 78 78 80 79 76 70 68 65 63
56 56 55 53 52 55 59 69 76 78 72 57 58 58 63 74 76 78 81 81 79 79 81 82 81 83 84 83 82 80 80 80 81 80 80 79 80 81 79 78 79 81 83 84 84 82 81 79 76 74 72 71 71 70 70 69 68 72 72 72 74 76 78 78 77 79 77 77 77 74 73 70 66 62
75 65 71 72 65 67 65 69 67 66 61 64 66 69 73 76 78 78 78 79 78 76 79 79 82 83 83 82 80 80 79 79 80 80 77 78 79 78 78 75 76 78 81 83 84 83 82 80 78 75 70 70 71 71 71 71 68 71 74 75 75 71 76 78 78 77 78 77 75 71 72 70 68 64
84 81 66 65 74 73 75 73 72 71 70 70 70 74 75 75 77 77 77 77 77 77 80 82 81 80 79 80 81 81 82 81 80 80 78 76 76 78 77 75 75 77 78 80 82 82 80 81 78 77 74 73 70 72 73 72 70 71 73 76 76 77 77 77 76 77 78 75 73 70 68 67 65 64
83 79 78 78 76 75 74 72 72 71 72 71 72 73 75 76 77 76 77 76 76 77 77 78 78 79 81 80 81 80 81 78 79 79 77 76 76 76 77 75 76 76 76 76 78 79 80 80 79 77 77 76 76 74 72 69 72 74 73 73 74 74 77 78 78 78 77 73 70 69 67 66 66 64
82 78 78 77 76 75 74 73 71 71 71 70 71 72 69 74 75 74 75 78 79 79 78 79 79 79 79 80 80 80 79 79 79 78 73 75 76 74 75 75 76 77 75 76 77 78 78 77 76 76 76 75 77 76 76 72 70 69 69 70 70 70 72 73 74 76 74 72 70 67 65 64 65 65
81 77 77 76 75 73 73 71 71 71 71 71 72 74 74 75 75 74 77 78 79 78 79 79 80 80 79 80 80 79 78 78 78 79 78 77 76 76 76 76 76 75 76 76 77 77 77 76 75 74 72 72 73 76 75 69 68 62 64 65 67 67 67 69 70 73 73 70 69 66 67 66 65 66
81 80 78 76 75 74 73 72 72 72 73 74 74 76 76 77 77 77 79 79 81 80 80 79 78 79 79 80 79 79 78 75 77 78 77 77 77 77 77 76 75 75 77 77 77 78 77 76 75 71 68 67 68 68 72 64 61 62 58 59 64 65 66 67 68 70 70 69 68 67 66 66 66 66
79 79 78 77 76 75 74 72 72 73 73 75 77 79 78 79 79 80 78 77 79 80 80 80 80 80 80 79 78 75 76 76 78 76 76 77 77 77 76 76 75 75 76 77 78 78 77 75 74 71 67 65 64 63 66 72 61 57 60 56 59 63 63 64 66 66 69 68 67 66 65 67 68 67
77 78 77 77 75 73 73 72 72 73 75 78 80 81 81 81 79 75 75 76 77 79 78 80 80 79 81 79 79 79 79 79 77 77 76 78 76 76 75 75 75 75 76 77 77 77 77 76 73 70 67 64 63 62 62 67 69 65 56 59 57 58 62 63 63 65 63 61 60 60 63 64 64 65
72 70 70 70 70 71 72 72 71 72 74 74 75 76 76 76 76 75 76 78 79 80 80 80 80 79 78 79 78 77 78 77 77 77 77 78 77 75 75 75 74 76 76 76 77 77 77 75 72 70 69 65 62 62 62 61 60 65 61 53 56 56 58 61 62 61 60 58 56 57 57 58 57 58
68 69 69 69 69 69 70 73 74 75 75 76 77 77 76 76 77 76 76 75 76 77 80 79 77 75 78 79 78 80 79 77 77 78 77 77 76 76 76 75 75 76 75 75 75 76 75 74 72 71 71 71 70 69 69 67 66 65 64 60 52 54 55 58 59 59 57 58 59 57 56 57 56 57
70 69 70 71 72 72 73 73 75 75 73 72 71 69 73 74 74 74 73 74 75 76 78 79 77 77 79 79 78 79 78 77 78 78 78 78 75 75 73 70 76 76 75 74 74 74 74 75 72 64 71 74 73 73 70 65 61 60 60 63 56 54 53 54 56 56 56 58 58 56 55 55 55 55
72 72 73 75 76 75 76 75 75 74 73 74 73 72 72 71 70 65 70 69 73 75 78 79 78 77 78 78 79 77 78 77 77 77 77 77 77 76 73 75 76 76 75 74 74 76 77 78 77 76 75 73 71 66 63 61 59 59 61 63 65 59 57 54 54 53 54 54 56 56 55 56 58 56
72 73 73 74 75 75 73 72 74 75 76 76 75 74 75 76 75 73 77 76 75 77 79 79 79 79 78 79 79 78 78 78 77 77 77 77 76 76 76 76 76 76 76 76 77 78 78 78 78 76 76 73 70 68 64 63 62 61 61 63 63 65 66 60 56 55 54 53 53 54 57 57 55 52
73 72 72 71 70 69 69 71 73 74 73 74 72 72 75 77 76 76 77 78 77 78 78 78 78 78 78 78 78 78 79 78 77 76 76 76 76 76 76 76 75 75 77 77 77 78 79 79 77 76 74 73 72 69 65 65 66 65 65 65 65 65 64 65 66 61 59 56 53 53 54 54 54 55
71 69 68 67 67 68 68 69 70 70 71 72 75 75 74 76 75 77 77 77 77 77 77 78 78 78 78 78 77 77 78 71 74 78 77 79 78 77 76 77 76 75 76 76 75 77 77 77 77 75 74 74 74 72 69 66 66 67 67 66 66 66 67 65 64 63 61 59 55 53 53 54 55 53
MSLP
1020.17 1020.29 1020.49 1020.77 1020.69 1020.57 1020.41 1020.49 1020.53 1020.69 1020.89 1021.05 1021.21 1021.41 1022.09 1022.49 1023.57 1023.81 1023.41 1022.65 1021.97 1020.65 1019.69 1020.37 1019.93 1019.41 1019.45 1019.53 1019.05 1019.17 1019.09 1018.81 1018.85 1018.85 1018.85 1018.77 1018.69 1018.57 1018.81 1018.93 1019.01 1019.13 1019.17 1019.21 1019.25 1019.25 1019.21 1019.21 1019.17 1019.13 1019.09 1019.05 1019.05 1019.05 1019.09 1019.17 1019.21 1019.25 1019.33 1019.37 1019.41 1019.45 1019.49 1019.53 1019.61 1019.69 1019.77 1019.85 1019.97 1020.05 1020.17 1020.21 1020.21 1020.21
1020.13 1020.17 1020.13 1020.29 1020.57 1020.33 1020.41 1020.41 1020.29 1020.45 1020.81 1020.97 1021.09 1021.25 1021.33 1021.61 1022.77 1023.01 1023.65 1022.97 1021.53 1021.21 1019.93 1019.53 1019.85 1019.61 1019.49 1019.21 1019.17 1018.89 1018.85 1018.57 1018.65 1018.61 1018.49 1018.41 1018.21 1018.17 1018.37 1018.49 1018.61 1018.69 1018.73 1018.77 1018.77 1018.73 1018.65 1018.61 1018.61 1018.57 1018.57 1018.57 1018.57 1018.57 1018.61 1018.65 1018.73 1018.81 1018.89 1018.97 1019.05 1019.13 1019.21 1019.33 1019.41 1019.45 1019.53 1019.61 1019.69 1019.77 1019.89 1019.97 1020.01 1020.05
1019.97 1020.21 1020.33 1020.17 1020.33 1020.13 1020.21 1020.09 1019.97 1020.09 1020.49 1020.73 1020.77 1020.93 1021.01 1021.33 1021.65 1022.29 1022.69 1023.33 1021.41 1020.33 1020.97 1019.89 1019.05 1019.25 1019.17 1018.85 1018.69 1018.53 1018.33 1018.25 1018.33 1018.33 1018.21 1018.01 1017.89 1017.97 1017.97 1018.09 1018.13 1018.17 1018.21 1018.21 1018.21 1018.17 1018.13 1018.09 1018.05 1018.05 1018.05 1018.09 1018.09 1018.13 1018.13 1018.17 1018.25 1018.33 1018.41 1018.49 1018.57 1018.69 1018.81 1018.93 1019.01 1019.09 1019.17 1019.29 1019.37 1019.49 1019.57 1019.65 1019.73 1019.81
1019.85 1020.09 1020.33 1020.25 1020.29 1020.09 1020.13 1020.17 1020.09 1020.13 1020.21 1020.33 1020.53 1020.61 1020.85 1021.01 1021.17 1021.53 1022.21 1022.69 1022.33 1020.53 1020.29 1019.85 1019.29 1018.81 1018.73 1018.45 1018.73 1018.57 1018.25 1017.81 1017.93 1017.97 1017.89 1017.65 1017.65 1017.61 1017.45 1017.37 1017.53 1017.57 1017.57 1017.57 1017.53 1017.57 1017.57 1017.57 1017.53 1017.53 1017.53 1017.53 1017.53 1017.57 1017.65 1017.77 1017.85 1017.89 1017.97 1018.01 1018.09 1018.21 1018.33 1018.45 1018.53 1018.65 1018.73 1018.89 1019.01 1019.17 1019.29 1019.37 1019.45 1019.53
1019.77 1020.01 1020.17 1020.13 1020.01 1019.85 1020.17 1020.09 1019.97 1019.85 1019.97 1020.13 1020.25 1020.29 1020.45 1020.77 1020.77 1021.25 1021.81 1022.29 1021.89 1020.57 1019.53 1019.53 1019.29 1018.65 1018.53 1018.65 1018.17 1018.41 1018.13 1017.89 1017.53 1017.49 1017.41 1017.29 1017.25 1017.09 1016.93 1016.65 1016.61 1016.69 1016.69 1016.77 1016.85 1016.93 1016.93 1016.93 1016.93 1016.97 1016.97 1017.01 1017.05 1017.09 1017.17 1017.25 1017.33 1017.41 1017.49 1017.61 1017.69 1017.81 1017.89 1017.97 1018.09 1018.21 1018.33 1018.49 1018.61 1018.77 1018.93 1019.05 1019.17 1019.25
1019.69 1019.77 1020.09 1020.05 1019.89 1019.73 1020.01 1019.89 1019.85 1019.65 1019.61 1019.73 1019.97 1020.09 1020.25 1020.41 1020.53 1020.37 1021.21 1021.45 1021.53 1021.37 1019.93 1019.65 1018.77 1018.69 1018.21 1018.89 1017.93 1018.33 1018.25 1017.85 1017.45 1017.37 1017.05 1016.69 1016.65 1016.77 1016.53 1016.29 1015.89 1015.81 1015.93 1016.05 1016.17 1016.25 1016.25 1016.29 1016.33 1016.37 1016.41 1016.45 1016.53 1016.57 1016.65 1016.69 1016.77 1016.85 1016.97 1017.13 1017.25 1017.37 1017.45 1017.53 1017.65 1017.81 1017.93 1018.09 1018.21 1018.33 1018.49 1018.65 1018.81 1018.93
1019.57 1019.77 1019.85 1019.85 1019.65 1019.49 1019.77 1019.81 1019.69 1019.33 1019.45 1019.33 1019.61 1019.77 1019.61 1020.01 1020.05 1019.97 1020.25 1020.89 1021.25 1020.93 1020.37 1019.33 1019.29 1018.73 1018.29 1018.41 1018.21 1017.77 1017.57 1017.33 1017.17 1017.29 1017.01 1016.69 1016.33 1016.13 1016.05 1015.93 1015.45 1015.21 1015.41 1015.65 1015.77 1015.81 1015.81 1015.85 1015.93 1015.97 1016.05 1016.09 1016.13 1016.13 1016.13 1016.21 1016.25 1016.33 1016.41 1016.57 1016.69 1016.77 1016.89 1017.01 1017.17 1017.29 1017.45 1017.61 1017.77 1017.89 1018.05 1018.21 1018.33 1018.45
1019.37 1019.49 1019.65 1019.49 1019.25 1019.25 1019.61 1019.61 1019.45 1019.25 1019.25 1019.41 1019.57 1019.69 1019.61 1019.69 1019.85 1019.69 1019.65 1019.93 1020.45 1020.41 1020.65 1019.65 1019.41 1018.69 1018.77 1018.25 1017.69 1017.37 1017.17 1017.13 1016.97 1016.77 1016.41 1016.13 1016.25 1016.17 1015.89 1015.57 1015.29 1015.01 1015.21 1015.41 1015.45 1015.33 1015.33 1015.41 1015.45 1015.49 1015.53 1015.49 1015.49 1015.49 1015.53 1015.57 1015.61 1015.65 1015.77 1015.93 1016.01 1016.09 1016.21 1016.33 1016.49 1016.65 1016.85 1017.01 1017.21 1017.41 1017.57 1017.69 1017.85 1017.97
1019.01 1019.09 1019.21 1019.05 1019.01 1019.05 1019.45 1019.37 1019.33 1019.05 1019.21 1019.21 1019.25 1019.45 1019.41 1019.57 1019.53 1019.53 1019.57 1019.65 1019.73 1020.13 1020.33 1019.85 1019.01 1018.61 1018.49 1018.05 1017.81 1017.49 1017.69 1017.17 1016.77 1016.41 1016.49 1016.49 1016.45 1016.25 1015.81 1015.33 1014.81 1014.69 1014.73 1014.73 1014.77 1014.73 1014.77 1014.81 1014.81 1014.81 1014.81 1014.81 1014.85 1014.85 1014.89 1014.89 1014.93 1015.05 1015.13 1015.29 1015.41 1015.45 1015.53 1015.61 1015.73 1015.93 1016.09 1016.29 1016.49 1016.73 1016.89 1017.05 1017.21 1017.37
1018.53 1018.69 1018.73 1018.69 1018.65 1018.77 1019.09 1019.05 1018.85 1018.77 1018.93 1018.93 1019.01 1019.17 1019.21 1019.21 1019.21 1019.41 1019.33 1019.33 1019.61 1019.77 1019.81 1019.69 1019.45 1018.73 1018.73 1018.33 1017.93 1017.41 1017.29 1017.45 1017.25 1016.77 1016.49 1016.45 1016.29 1016.17 1015.97 1015.41 1014.77 1014.37 1014.13 1013.97 1013.81 1013.97 1014.05 1014.01 1014.05 1014.09 1014.17 1014.25 1014.29 1014.33 1014.33 1014.33 1014.41 1014.49 1014.53 1014.65 1014.73 1014.77 1014.81 1014.97 1015.09 1015.25 1015.45 1015.61 1015.77 1015.93 1016.13 1016.29 1016.49 1016.69
1017.93 1018.05 1018.21 1018.25 1018.25 1018.41 1018.45 1018.53 1018.53 1018.49 1018.57 1018.61 1018.69 1018.69 1018.93 1018.93 1019.09 1019.17 1019.09 1019.05 1019.21 1019.37 1019.49 1019.25 1018.97 1018.85 1018.09 1017.97 1018.17 1017.17 1016.81 1016.89 1017.01 1017.17 1017.09 1017.09 1016.25 1015.89 1015.69 1015.53 1014.65 1014.17 1014.01 1013.61 1013.49 1013.41 1013.29 1013.17 1013.21 1013.21 1013.33 1013.45 1013.57 1013.53 1013.53 1013.49 1013.53 1013.53 1013.65 1013.77 1013.85 1013.93 1014.09 1014.25 1014.41 1014.53 1014.69 1014.89 1015.05 1015.25 1015.41 1015.57 1015.77 1016.01
1017.45 1017.49 1017.57 1017.57 1017.65 1017.77 1017.81 1017.97 1017.93 1017.93 1018.17 1018.13 1018.41 1018.21 1018.37 1018.61 1018.89 1019.09 1018.97 1018.93 1018.97 1019.13 1019.17 1019.13 1018.93 1018.37 1018.21 1017.65 1017.01 1016.57 1016.81 1017.37 1017.09 1016.73 1016.97 1017.21 1016.61 1015.97 1015.45 1015.05 1015.09 1014.61 1014.37 1014.17 1013.49 1013.05 1012.89 1012.69 1012.45 1012.45 1012.45 1012.61 1012.69 1012.57 1012.53 1012.45 1012.41 1012.53 1012.65 1012.81 1012.93 1013.09 1013.21 1013.37 1013.57 1013.77 1013.93 1014.09 1014.29 1014.49 1014.73 1014.93 1015.09 1015.29
1017.25 1017.17 1017.05 1017.01 1016.97 1017.05 1017.29 1017.41 1017.49 1017.45 1017.53 1017.85 1018.21 1018.09 1018.13 1018.45 1018.69 1018.93 1018.89 1018.97 1018.97 1018.93 1018.89 1018.89 1018.41 1018.33 1018.01 1017.45 1017.25 1017.21 1017.41 1017.61 1017.25 1016.33 1016.17 1016.45 1016.17 1015.61 1015.37 1014.65 1014.17 1014.25 1014.37 1013.97 1013.61 1013.25 1012.89 1012.77 1012.29 1011.85 1011.61 1011.41 1011.65 1011.61 1011.69 1011.49 1011.57 1011.65 1011.77 1011.93 1011.97 1012.05 1012.17 1012.37 1012.65 1012.89 1013.09 1013.25 1013.49 1013.69 1013.89 1014.09 1014.33 1014.61
1016.93 1016.85 1016.77 1016.53 1016.65 1016.89 1017.09 1017.29 1017.41 1017.45 1017.49 1017.57 1017.61 1017.77 1017.85 1018.09 1018.37 1018.69 1018.97 1019.01 1018.77 1018.73 1018.85 1018.61 1018.33 1018.25 1017.89 1017.37 1017.01 1017.05 1016.89 1016.57 1016.25 1016.25 1016.17 1016.37 1015.65 1015.37 1015.49 1015.01 1014.17 1013.33 1013.69 1014.13 1014.05 1013.25 1012.49 1012.41 1012.09 1011.85 1011.85 1011.41 1011.29 1010.97 1010.77 1010.61 1010.45 1010.61 1011.01 1011.25 1011.37 1011.37 1011.37 1011.41 1011.61 1011.81 1012.05 1012.33 1012.57 1012.77 1013.01 1013.25 1013.57 1013.89
1016.85 1016.57 1016.53 1016.49 1016.49 1016.81 1017.01 1017.09 1017.17 1017.21 1017.29 1017.37 1017.57 1017.65 1017.73 1017.77 1018.09 1018.41 1018.61 1018.57 1018.29 1018.37 1018.29 1017.81 1017.81 1017.81 1017.77 1017.25 1016.81 1016.85 1016.69 1016.53 1016.45 1016.25 1015.93 1015.89 1015.69 1015.89 1016.09 1016.09 1014.53 1013.33 1013.45 1013.93 1014.05 1013.25 1012.25 1012.17 1012.29 1011.65 1011.29 1010.97 1010.61 1010.29 1010.13 1009.89 1010.01 1010.01 1010.05 1010.25 1010.41 1010.53 1010.65 1010.81 1011.05 1011.13 1011.25 1011.41 1011.61 1011.85 1012.13 1012.49 1012.85 1013.25
1016.49 1016.49 1016.37 1016.21 1016.09 1016.21 1016.41 1016.57 1016.73 1016.89 1016.93 1017.09 1017.33 1017.49 1017.57 1017.73 1017.85 1018.01 1018.21 1018.29 1018.17 1017.97 1017.93 1017.77 1017.53 1017.41 1017.21 1016.81 1016.73 1016.73 1016.77 1016.81 1016.41 1015.93 1015.61 1015.57 1015.61 1015.57 1015.65 1015.61 1015.81 1013.89 1013.25 1014.05 1014.09 1013.37 1012.01 1011.81 1011.81 1011.49 1010.89 1010.53 1010.09 1009.69 1009.57 1009.57 1009.49 1009.45 1009.49 1009.65 1009.81 1009.89 1009.93 1010.01 1010.13 1010.25 1010.41 1010.69 1010.89 1011.05 1011.33 1011.73 1012.17 1012.57
1016.09 1016.17 1016.29 1016.21 1015.97 1015.77 1016.01 1016.25 1016.17 1016.17 1016.29 1016.57 1016.93 1017.17 1017.33 1017.45 1017.61 1017.81 1017.93 1017.81 1017.77 1017.37 1017.57 1017.57 1017.33 1017.01 1016.69 1016.77 1016.65 1016.57 1016.69 1016.41 1016.69 1016.17 1015.81 1015.33 1015.21 1015.17 1015.29 1015.05 1014.73 1014.05 1013.29 1013.85 1013.89 1013.33 1012.01 1011.81 1011.73 1011.41 1010.41 1010.01 1009.53 1009.17 1008.93 1008.85 1008.81 1008.77 1008.85 1009.05 1009.17 1009.21 1009.25 1009.33 1009.37 1009.41 1009.57 1009.77 1010.05 1010.33 1010.65 1010.97 1011.37 1011.85
1015.69 1015.85 1016.01 1016.13 1016.13 1015.81 1015.81 1015.89 1015.97 1015.93 1015.93 1015.89 1016.21 1016.69 1016.93 1016.77 1016.69 1017.09 1017.33 1017.41 1017.41 1017.33 1017.17 1017.01 1016.89 1015.97 1016.01 1016.57 1016.29 1015.89 1015.89 1016.37 1016.61 1016.45 1016.05 1015.41 1015.21 1015.01 1014.85 1014.29 1014.37 1013.85 1013.37 1013.89 1013.69 1013.13 1012.01 1011.41 1011.21 1011.01 1010.09 1009.49 1009.17 1008.77 1008.45 1008.25 1008.01 1008.01 1008.17 1008.33 1008.37 1008.37 1008.49 1008.61 1008.65 1008.85 1009.01 1009.13 1009.21 1009.57 1010.01 1010.37 1010.73 1011.05
1015.17 1015.29 1015.45 1015.61 1015.73 1015.65 1015.65 1015.49 1015.57 1015.69 1015.65 1015.73 1015.81 1015.77 1015.77 1015.77 1015.61 1015.57 1015.85 1016.25 1016.53 1016.69 1016.61 1016.21 1015.65 1015.45 1015.61 1015.81 1015.77 1015.53 1015.49 1015.73 1015.81 1015.81 1015.81 1015.45 1015.09 1014.49 1013.73 1013.45 1013.45 1013.37 1012.69 1012.69 1013.13 1013.33 1011.53 1010.77 1010.93 1010.33 1009.69 1009.05 1008.69 1008.13 1007.81 1007.57 1007.33 1007.33 1007.49 1007.61 1007.65 1007.69 1007.85 1007.97 1008.05 1008.21 1008.45 1008.57 1008.77 1009.13 1009.45 1009.81 1010.17 1010.41
1014.73 1014.81 1014.97 1015.21 1015.37 1015.33 1015.37 1015.25 1015.37 1015.41 1015.37 1015.49 1015.57 1015.61 1015.49 1015.25 1014.93 1014.81 1014.53 1014.53 1014.85 1015.01 1015.01 1015.01 1014.97 1014.97 1015.21 1015.53 1015.53 1015.37 1015.29 1015.33 1015.37 1015.37 1015.33 1015.21 1015.13 1015.05 1014.73 1014.21 1013.01 1013.21 1012.29 1012.05 1012.61 1012.61 1011.65 1010.61 1010.81 1009.89 1009.01 1008.65 1008.45 1007.69 1007.33 1006.89 1006.65 1006.69 1006.89 1006.97 1007.05 1007.21 1007.41 1007.49 1007.57 1007.77 1007.93 1008.01 1008.33 1008.81 1009.17 1009.57 1009.81 1010.13
1014.37 1014.41 1014.53 1014.73 1014.89 1014.97 1015.05 1014.93 1015.17 1015.29 1015.45 1015.61 1015.61 1015.53 1015.41 1015.13 1014.85 1014.61 1013.97 1014.05 1014.37 1014.49 1014.49 1014.61 1014.85 1015.33 1015.53 1015.65 1015.73 1015.65 1015.61 1015.69 1015.69 1015.93 1016.25 1016.13 1015.33 1015.41 1015.29 1014.13 1013.41 1012.85 1012.29 1011.69 1011.61 1011.81 1011.65 1010.69 1010.45 1009.81 1008.89 1008.73 1008.45 1007.89 1007.25 1006.65 1006.21 1006.25 1006.37 1006.49 1006.65 1006.81 1006.97 1007.13 1007.21 1007.37 1007.57 1007.73 1008.01 1008.37 1008.69 1009.05 1009.45 1009.85
1014.01 1013.97 1014.17 1014.33 1014.49 1014.65 1014.57 1014.57 1014.93 1015.09 1015.37 1015.57 1015.49 1015.41 1015.29 1015.17 1014.97 1014.61 1014.05 1013.89 1014.05 1014.21 1014.81 1015.33 1015.45 1015.49 1015.53 1015.65 1015.77 1015.69 1015.57 1015.49 1015.77 1016.13 1016.37 1015.17 1014.73 1015.01 1014.85 1014.81 1013.77 1012.49 1012.01 1011.69 1010.97 1011.85 1011.49 1010.53 1010.13 1009.93 1008.73 1008.21 1007.81 1007.45 1006.85 1006.49 1006.17 1005.89 1005.81 1005.85 1006.01 1006.13 1006.29 1006.49 1006.73 1006.89 1007.13 1007.29 1007.57 1007.93 1008.21 1008.61 1009.17 1009.85
1013.69 1013.69 1013.73 1014.05 1014.17 1014.25 1014.21 1014.41 1014.69 1014.93 1015.09 1015.17 1015.09 1014.97 1015.01 1015.01 1014.89 1014.37 1014.01 1014.17 1014.21 1014.33 1014.61 1014.77 1014.97 1015.09 1015.05 1015.13 1015.13 1014.93 1014.85 1014.89 1015.17 1015.13 1014.89 1014.45 1014.69 1014.93 1014.65 1014.41 1013.85 1013.25 1012.09 1011.37 1011.01 1012.21 1011.13 1010.97 1010.05 1010.21 1009.61 1008.89 1007.53 1007.21 1006.89 1006.69 1006.37 1006.09 1005.73 1005.49 1005.41 1005.73 1006.05 1006.25 1006.25 1006.37 1006.57 1006.85 1007.09 1007.37 1007.73 1008.21 1008.93 1009.33
1013.45 1013.41 1013.37 1013.49 1013.89 1014.09 1014.21 1014.29 1014.53 1014.73 1014.77 1014.77 1014.57 1014.49 1014.69 1014.81 1014.85 1013.77 1013.77 1013.85 1014.13 1014.29 1014.57 1014.65 1014.69 1014.81 1014.61 1014.49 1014.33 1014.13 1014.01 1014.01 1014.21 1014.25 1014.13 1013.93 1013.93 1014.17 1014.17 1013.93 1013.77 1013.73 1012.57 1011.37 1011.01 1011.89 1011.09 1010.81 1010.41 1009.85 1010.21 1010.29 1008.69 1007.33 1007.21 1006.93 1006.57 1006.21 1006.05 1005.89 1005.73 1005.45 1005.65 1005.85 1006.05 1006.21 1006.45 1006.57 1006.69 1006.89 1007.25 1007.77 1008.41 1008.77
1013.21 1013.17 1013.05 1012.73 1013.13 1013.73 1013.89 1014.05 1014.37 1014.53 1014.61 1014.53 1014.37 1014.29 1014.37 1014.17 1014.09 1013.93 1014.01 1013.93 1014.41 1014.49 1014.49 1014.57 1014.57 1014.57 1014.41 1014.21 1013.89 1013.61 1013.41 1013.21 1013.05 1013.09 1013.01 1012.93 1013.13 1013.53 1013.85 1013.77 1013.57 1013.01 1012.01 1011.37 1011.29 1011.93 1011.97 1011.13 1010.89 1010.29 1009.97 1009.77 1009.05 1008.13 1007.29 1007.37 1006.73 1006.65 1006.37 1006.25 1006.05 1005.49 1005.49 1005.73 1005.73 1005.77 1006.05 1006.29 1006.45 1006.61 1007.05 1007.57 1007.97 1008.05
1012.53 1012.61 1012.49 1012.49 1012.69 1013.21 1013.53 1013.77 1014.13 1014.37 1014.49 1014.49 1014.45 1014.05 1013.85 1013.85 1014.09 1013.97 1013.85 1013.93 1014.33 1014.45 1014.53 1014.61 1014.49 1014.29 1014.17 1014.01 1013.81 1013.65 1013.45 1013.17 1013.05 1013.13 1013.21 1013.21 1013.25 1013.13 1013.09 1013.33 1013.53 1013.33 1012.49 1011.45 1011.61 1011.97 1012.01 1011.57 1011.17 1010.93 1010.37 1010.25 1009.09 1009.09 1008.41 1007.89 1007.45 1006.77 1006.45 1006.21 1006.13 1005.89 1005.73 1005.53 1005.73 1005.77 1005.65 1005.69 1005.85 1006.29 1006.69 1007.01 1007.25 1007.37
1012.09 1011.85 1011.97 1011.93 1012.37 1012.89 1013.21 1013.45 1013.81 1014.13 1014.25 1014.49 1014.33 1013.97 1013.89 1013.85 1013.81 1014.05 1014.05 1014.21 1014.45 1014.65 1014.69 1014.81 1014.85 1014.61 1014.29 1014.17 1013.93 1013.65 1013.57 1013.25 1013.25 1013.37 1013.29 1013.29 1013.25 1013.09 1012.85 1012.73 1012.65 1012.61 1012.09 1011.73 1011.61 1011.73 1011.93 1011.77 1011.29 1011.41 1011.01 1010.49 1010.17 1009.17 1009.21 1008.73 1007.57 1007.05 1006.97 1006.65 1006.25 1005.97 1005.61 1005.41 1005.41 1005.25 1005.01 1005.05 1005.09 1005.25 1005.81 1006.41 1006.73 1006.85
1011.53 1011.57 1011.53 1011.69 1012.21 1012.65 1013.01 1013.33 1013.53 1013.81 1014.13 1014.05 1013.89 1014.01 1013.97 1013.85 1013.81 1013.93 1014.17 1014.41 1014.53 1014.85 1014.97 1015.05 1014.97 1014.69 1014.21 1014.01 1013.93 1013.81 1013.73 1013.61 1013.57 1013.53 1013.45 1013.33 1013.09 1012.93 1012.73 1012.53 1012.41 1012.25 1012.09 1011.85 1011.57 1011.53 1011.61 1011.69 1011.37 1011.09 1011.05 1010.85 1010.57 1010.21 1009.41 1008.61 1008.29 1007.89 1007.65 1006.77 1006.45 1006.01 1005.57 1005.29 1005.09 1004.89 1004.77 1004.65 1004.57 1004.85 1005.65 1006.29 1006.69 1007.13
1011.61 1011.93 1012.05 1012.29 1012.53 1012.77 1013.01 1013.25 1013.53 1013.81 1013.93 1013.85 1013.85 1013.97 1013.93 1013.89 1013.77 1013.89 1014.05 1014.09 1014.37 1014.81 1014.85 1014.57 1014.33 1014.17 1014.01 1013.97 1013.89 1013.77 1013.81 1013.73 1013.57 1013.49 1013.29 1013.09 1013.01 1012.85 1012.65 1012.53 1012.33 1012.13 1011.85 1011.53 1011.41 1011.33 1011.29 1011.21 1011.05 1010.77 1010.89 1010.77 1010.61 1009.97 1009.85 1009.17 1008.73 1008.21 1007.69 1007.33 1006.93 1006.05 1005.45 1005.09 1004.97 1004.85 1004.45 1004.21 1004.17 1004.45 1004.81 1005.09 1005.73 1006.45
1012.13 1012.13 1012.29 1012.49 1012.73 1012.97 1013.13 1013.29 1013.33 1013.41 1013.77 1014.05 1014.09 1014.13 1014.13 1014.05 1013.89 1013.85 1013.77 1013.81 1014.09 1014.37 1014.21 1013.97 1014.01 1013.85 1013.69 1013.69 1013.61 1013.73 1013.69 1013.77 1013.81 1013.73 1013.81 1013.73 1013.37 1013.09 1013.05 1012.93 1012.45 1011.97 1011.61 1011.37 1011.21 1011.09 1010.97 1010.93 1010.93 1010.85 1010.81 1010.45 1010.13 1009.73 1009.37 1009.05 1008.49 1007.93 1007.45 1007.17 1006.33 1005.45 1005.09 1004.89 1004.73 1004.37 1004.25 1004.17 1004.09 1004.17 1004.33 1004.73 1005.13 1005.73
1011.89 1012.13 1012.01 1012.17 1012.37 1012.53 1012.85 1012.77 1013.01 1013.57 1014.17 1014.49 1014.61 1014.53 1014.29 1014.05 1013.89 1013.93 1014.01 1014.05 1014.29 1014.45 1014.29 1014.01 1013.85 1013.65 1013.65 1013.53 1013.69 1013.77 1013.81 1013.89 1013.77 1013.69 1013.93 1013.85 1013.69 1013.49 1013.33 1013.41 1013.05 1012.37 1011.73 1011.25 1011.05 1010.93 1010.81 1010.69 1010.57 1010.65 1010.69 1010.05 1009.53 1009.33 1008.89 1008.73 1008.37 1007.69 1007.01 1006.37 1006.05 1006.29 1004.97 1004.53 1004.41 1004.17 1003.89 1003.81 1003.77 1003.97 1004.17 1004.49 1004.89 1005.25
1011.01 1011.69 1012.25 1012.53 1012.69 1012.93 1013.17 1013.41 1013.73 1013.97 1014.13 1014.25 1014.33 1014.33 1014.29 1014.29 1014.17 1014.17 1014.13 1014.21 1014.33 1014.37 1014.21 1013.89 1013.93 1013.97 1014.01 1014.01 1013.85 1013.73 1013.73 1013.85 1013.85 1013.81 1014.01 1014.21 1014.09 1013.73 1013.57 1013.69 1013.45 1012.81 1012.17 1011.57 1011.17 1010.81 1010.61 1010.45 1010.41 1010.25 1010.05 1009.69 1009.41 1008.77 1008.41 1008.29 1008.05 1007.45 1006.85 1006.05 1005.57 1005.01 1004.53 1004.37 1004.13 1003.85 1003.53 1003.57 1003.77 1003.89 1004.05 1004.13 1004.45 1004.81
1010.73 1011.57 1012.01 1012.33 1012.73 1013.01 1013.41 1013.77 1013.93 1014.17 1014.29 1014.45 1014.41 1014.49 1014.49 1014.45 1014.41 1014.41 1014.53 1014.81 1014.81 1014.57 1014.53 1014.53 1014.49 1014.29 1014.09 1014.09 1014.01 1013.97 1014.01 1014.17 1014.21 1013.97 1014.21 1014.21 1014.25 1013.97 1013.85 1013.93 1013.49 1013.17 1012.85 1012.29 1011.61 1011.09 1010.73 1010.49 1010.29 1010.17 1009.77 1009.29 1008.97 1008.65 1008.45 1008.25 1007.61 1007.05 1006.77 1006.09 1005.61 1005.13 1004.53 1003.97 1003.69 1003.49 1003.29 1003.61 1003.69 1003.61 1003.81 1003.85 1004.01 1004.41
1010.65 1011.53 1011.85 1012.13 1012.49 1012.81 1013.13 1013.49 1013.81 1014.01 1014.25 1014.49 1014.65 1014.65 1014.57 1014.53 1014.65 1014.73 1014.73 1014.57 1014.45 1014.41 1014.53 1014.45 1014.49 1014.41 1014.41 1014.41 1014.29 1014.33 1014.33 1014.33 1014.29 1014.17 1014.41 1014.41 1014.21 1014.41 1014.17 1013.93 1013.49 1013.01 1012.81 1012.45 1011.81 1011.33 1010.93 1010.69 1010.45 1010.21 1009.85 1009.37 1008.73 1008.37 1008.09 1008.25 1008.09 1007.77 1007.49 1006.93 1006.49 1006.09 1005.21 1004.53 1004.05 1003.73 1003.65 1003.65 1003.57 1003.73 1003.85 1004.01 1004.01 1004.21
1010.57 1011.53 1011.77 1012.09 1012.29 1012.53 1012.73 1013.09 1013.37 1013.65 1013.97 1014.25 1014.29 1014.37 1014.49 1014.49 1014.53 1014.61 1014.37 1014.29 1014.25 1014.45 1014.53 1014.49 1014.37 1014.41 1014.53 1014.53 1014.49 1014.61 1014.61 1014.61 1014.53 1014.29 1014.17 1014.21 1014.25 1014.21 1014.05 1013.93 1013.53 1013.21 1012.81 1012.37 1011.89 1011.37 1011.01 1010.65 1010.45 1010.33 1010.01 1009.65 1009.09 1008.21 1007.97 1008.33 1008.69 1008.97 1008.41 1007.81 1007.25 1006.77 1006.01 1005.25 1004.73 1003.97 1003.53 1003.45 1003.45 1003.69 1003.69 1003.73 1003.93 1003.93
1010.33 1010.81 1011.25 1011.65 1011.93 1012.13 1012.45 1012.73 1012.97 1013.25 1013.41 1013.69 1013.89 1013.97 1014.09 1014.05 1014.09 1014.33 1014.05 1013.85 1014.09 1014.33 1014.37 1014.49 1014.57 1014.61 1014.61 1014.61 1014.57 1014.57 1014.57 1014.73 1014.61 1014.37 1014.45 1014.29 1014.21 1014.09 1013.85 1013.65 1013.45 1013.09 1012.61 1012.25 1011.89 1011.25 1010.97 1010.85 1010.61 1010.73 1010.73 1010.33 1010.05 1009.73 1008.89 1008.77 1008.89 1009.21 1009.33 1008.77 1007.77 1007.09 1006.25 1005.45 1004.77 1004.13 1003.77 1003.61 1003.49 1003.61 1003.77 1003.77 1003.73 1003.85
1010.25 1010.45 1010.65 1011.05 1011.33 1011.69 1012.09 1012.33 1012.57 1012.85 1013.17 1013.33 1013.33 1013.41 1013.61 1013.77 1013.93 1013.85 1014.01 1014.25 1014.13 1013.97 1014.01 1014.21 1014.41 1014.45 1014.53 1014.49 1014.57 1014.69 1014.57 1014.61 1014.49 1014.49 1014.45 1014.17 1014.01 1013.93 1013.85 1013.49 1013.21 1012.93 1012.61 1012.17 1011.57 1011.21 1011.01 1010.93 1010.77 1010.85 1011.01 1010.85 1010.65 1010.49 1009.73 1008.73 1009.05 1009.29 1009.69 1009.53 1008.49 1007.37 1006.61 1005.65 1004.85 1004.25 1003.81 1003.73 1003.73 1003.81 1003.85 1003.69 1003.69 1003.81
1010.25 1010.21 1010.49 1010.85 1011.41 1011.81 1012.05 1012.37 1012.69 1012.81 1012.97 1012.85 1012.85 1012.93 1013.13 1013.45 1013.85 1014.37 1014.53 1014.57 1014.37 1014.01 1014.21 1014.21 1014.17 1014.37 1014.21 1014.29 1014.49 1014.37 1014.41 1014.25 1014.29 1014.21 1014.05 1013.93 1013.97 1013.93 1013.77 1013.61 1013.29 1012.89 1012.61 1012.01 1011.57 1011.33 1011.01 1010.93 1010.97 1011.05 1011.13 1011.21 1011.05 1010.73 1010.21 1009.33 1008.97 1008.97 1009.37 1009.45 1009.13 1008.17 1006.89 1005.81 1005.01 1004.37 1004.53 1004.65 1004.73 1004.57 1004.17 1004.09 1004.13 1004.25
1010.57 1011.01 1011.29 1011.57 1011.81 1011.89 1012.09 1012.29 1012.49 1012.77 1012.85 1012.97 1013.09 1013.29 1013.49 1013.77 1014.13 1014.37 1014.41 1014.25 1014.05 1013.81 1013.77 1013.89 1014.05 1014.17 1014.29 1014.29 1014.33 1014.41 1014.37 1014.29 1014.25 1014.01 1013.89 1013.69 1013.69 1013.85 1013.69 1013.49 1013.29 1012.73 1012.41 1012.05 1011.65 1011.29 1011.09 1011.05 1011.05 1011.05 1010.97 1011.05 1011.25 1011.05 1010.73 1010.45 1010.05 1009.69 1009.57 1009.69 1009.53 1008.73 1007.61 1006.41 1005.61 1005.45 1005.37 1005.53 1005.69 1005.49 1005.41 1005.33 1005.09 1005.05
1011.13 1011.29 1011.61 1011.81 1011.97 1012.13 1012.29 1012.33 1012.49 1012.69 1012.81 1012.77 1012.89 1013.13 1013.45 1013.57 1013.61 1013.69 1013.85 1014.21 1014.29 1013.97 1013.65 1013.85 1014.17 1014.45 1014.37 1014.21 1014.21 1013.97 1013.89 1014.01 1013.93 1013.73 1013.69 1013.53 1013.41 1013.45 1013.37 1013.29 1012.93 1012.53 1012.29 1012.09 1011.85 1011.45 1011.29 1011.21 1011.13 1011.09 1010.85 1010.61 1010.53 1010.45 1010.17 1010.13 1010.05 1010.05 1009.77 1009.57 1009.57 1009.33 1008.69 1007.33 1006.61 1006.29 1006.21 1006.17 1006.05 1005.89 1005.97 1005.85 1005.93 1006.05
1011.17 1011.45 1011.65 1011.69 1011.93 1012.17 1012.41 1012.45 1012.33 1012.45 1012.77 1013.13 1013.41 1013.53 1013.57 1013.65 1013.73 1013.73 1013.89 1013.97 1014.09 1014.05 1013.85 1013.93 1014.21 1014.25 1013.97 1014.05 1014.09 1013.97 1013.89 1013.77 1013.57 1013.49 1013.45 1013.29 1013.21 1013.21 1013.25 1013.01 1012.61 1012.33 1012.29 1012.09 1011.89 1011.61 1011.41 1011.17 1011.09 1010.77 1010.49 1010.25 1010.13 1009.85 1009.81 1010.09 1010.21 1010.01 1009.73 1009.37 1009.21 1009.13 1008.81 1008.37 1007.89 1007.41 1007.17 1006.85 1006.65 1006.61 1006.57 1006.49 1006.49 1006.57
1010.93 1011.25 1011.49 1011.49 1011.69 1011.97 1012.21 1012.41 1012.41 1012.53 1012.77 1012.97 1013.25 1013.53 1013.69 1013.81 1013.97 1014.25 1014.13 1014.17 1014.09 1014.01 1013.77 1013.81 1014.01 1014.05 1013.89 1013.93 1013.77 1013.73 1013.65 1013.65 1013.57 1013.49 1013.37 1013.21 1013.09 1012.89 1012.77 1012.57 1012.53 1012.29 1012.17 1012.09 1011.85 1011.41 1010.89 1010.41 1010.41 1010.41 1010.25 1010.25 1010.37 1010.45 1010.61 1010.69 1010.61 1010.25 1009.85 1009.49 1009.13 1008.93 1008.81 1008.61 1008.29 1008.09 1008.01 1007.81 1007.45 1007.25 1007.25 1007.05 1006.73 1006.89
1010.69 1010.97 1011.33 1011.49 1011.57 1011.85 1012.29 1012.53 1012.45 1012.45 1012.53 1012.69 1013.01 1013.25 1013.29 1013.33 1013.49 1013.69 1013.41 1013.57 1013.81 1013.61 1013.57 1013.65 1013.69 1013.69 1013.65 1013.53 1013.49 1013.49 1013.41 1013.37 1013.41 1013.37 1013.25 1013.09 1013.01 1012.89 1012.69 1012.45 1012.41 1012.17 1011.81 1011.61 1011.25 1010.77 1010.61 1010.21 1010.01 1010.25 1010.21 1010.37 1010.49 1010.45 1010.77 1010.69 1010.53 1010.41 1010.09 1009.65 1009.37 1009.01 1008.73 1008.57 1008.41 1008.25 1008.09 1008.05 1008.01 1007.89 1007.53 1007.33 1007.49 1007.49
1010.81 1011.21 1011.65 1012.01 1012.33 1012.53 1012.61 1012.65 1012.61 1012.61 1012.85 1013.13 1013.41 1013.41 1013.25 1013.13 1013.21 1013.29 1013.29 1013.37 1013.49 1013.49 1013.57 1013.61 1013.57 1013.53 1013.45 1013.41 1013.37 1013.25 1013.17 1013.29 1013.29 1013.21 1013.05 1012.89 1012.73 1012.57 1012.45 1012.29 1012.17 1012.01 1011.61 1011.29 1011.01 1010.49 1010.29 1010.01 1010.01 1010.21 1010.29 1010.29 1010.29 1010.49 1010.81 1010.53 1010.17 1010.09 1009.89 1009.69 1009.45 1009.17 1009.01 1008.65 1008.33 1008.17 1008.21 1008.41 1008.49 1008.17 1007.77 1007.49 1007.49 1007.53
1011.29 1011.73 1012.25 1012.61 1012.85 1012.93 1012.97 1013.01 1013.09 1013.17 1013.29 1013.33 1013.09 1013.17 1013.29 1013.13 1013.13 1013.09 1013.13 1013.33 1013.33 1013.45 1013.49 1013.37 1013.29 1013.25 1013.25 1013.25 1013.33 1013.29 1013.05 1013.29 1013.17 1012.73 1012.57 1012.21 1012.09 1012.17 1012.09 1012.01 1011.89 1011.89 1011.57 1011.25 1011.09 1010.53 1010.37 1009.97 1009.85 1010.13 1010.25 1010.29 1010.13 1010.29 1010.61 1010.73 1010.45 1010.01 1009.93 1009.81 1009.65 1009.37 1009.13 1008.97 1008.77 1008.61 1008.61 1008.85 1009.25 1008.97 1008.57 1008.29 1008.09 1008.17
Wind_Speed
5 5 6 5 4 4 3 3 3 2 2 3 2 3 4 4 5 6 6 4 5 3 4 3 4 2 2 3 3 4 6 6 7 8 8 9 10 11 16 17 17 17 17 17 17 18 18 19 19 20 20 21 20 20 20 20 20 19 19 18 18 17 16 15 14 14 13 11 11 11 12 13 13 12
5 5 5 5 5 4 5 5 5 3 4 4 4 4 4 4 5 5 6 6 5 5 4 5 1 5 4 5 6 6 7 6 8 8 9 9 10 12 13 15 16 17 17 18 18 18 19 20 20 20 21 21 21 21 21 21 20 20 19 19 18 17 17 16 15 15 14 13 12 12 13 13 13 13
6 6 6 5 5 4 5 4 4 4 5 4 4 4 4 5 5 5 5 8 4 4 5 5 6 3 4 6 6 6 7 7 9 9 9 10 13 13 10 13 15 17 17 18 19 19 20 20 20 20 20 20 21 21 21 21 21 21 20 19 19 19 18 17 17 16 15 15 13 14 14 14 14 14
6 7 7 6 5 5 5 5 5 4 5 5 5 5 5 5 5 5 6 8 9 6 8 8 8 8 7 7 8 8 8 8 11 10 10 11 11 10 11 15 17 18 19 19 20 20 21 21 22 21 21 21 22 22 21 21 21 21 21 21 20 19 19 18 17 17 16 16 15 15 14 15 15 14
7 7 7 7 7 6 6 5 5 6 6 6 6 6 6 6 6 6 6 8 9 7 7 7 8 8 8 9 8 10 9 9 7 10 10 11 11 10 10 11 15 20 21 21 21 21 22 22 22 22 22 22 22 22 22 22 21 21 21 21 20 20 19 18 18 18 17 16 16 15 15 15 15 14
7 7 7 7 7 7 7 7 7 7 6 6 6 6 6 6 6 6 7 8 8 10 7 7 7 8 7 9 8 8 9 10 9 10 10 9 10 10 10 10 11 16 20 21 21 21 22 22 22 23 23 23 23 22 22 22 22 21 21 21 20 20 20 19 18 18 18 17 16 16 16 15 15 15
8 8 8 8 7 6 7 7 7 7 7 6 6 7 6 7 7 7 8 8 9 10 9 7 8 8 7 8 8 9 9 10 10 11 11 11 9 9 10 10 11 13 15 18 19 20 20 20 21 21 22 22 22 22 22 22 22 21 21 21 21 21 21 20 20 19 19 18 18 17 17 16 16 16
9 9 8 8 7 7 7 7 6 6 6 6 6 7 7 7 8 7 7 9 8 8 9 7 8 8 8 8 9 9 9 11 10 10 10 10 10 10 10 12 12 12 12 14 17 19 19 20 20 20 21 21 21 22 22 22 22 22 21 21 21 21 21 21 21 20 20 19 19 18 18 17 17 17
9 9 9 8 8 8 8 7 8 7 8 7 7 7 7 6 6 6 6 8 8 9 10 9 8 8 8 8 9 9 10 10 10 11 11 10 9 9 10 11 11 14 14 16 18 18 19 20 20 21 21 21 22 22 22 22 22 22 22 21 22 22 22 22 21 21 21 20 20 20 19 19 19 19
9 9 9 9 9 9 9 8 8 8 9 8 8 8 7 6 6 7 8 8 8 9 10 10 10 8 9 9 8 9 10 10 10 9 7 7 9 9 10 10 9 9 9 8 8 14 17 21 22 21 20 20 21 21 21 22 21 22 22 22 22 22 23 22 22 21 21 21 21 21 21 20 20 20
10 10 9 9 10 10 10 9 9 9 9 8 9 8 7 7 6 7 7 7 8 9 10 9 9 9 8 8 10 8 8 10 10 10 9 7 5 7 8 9 9 9 11 13 15 15 15 16 13 16 21 22 22 22 22 22 23 23 23 22 23 23 23 22 22 22 22 22 22 22 22 22 22 22
10 10 10 10 10 10 10 10 9 9 8 7 8 7 6 6 6 6 6 7 7 8 9 9 9 9 10 9 10 9 8 9 9 8 8 11 12 11 10 11 12 11 12 13 12 9 13 17 21 23 21 20 21 23 23 25 24 24 23 23 24 23 23 23 23 23 23 22 22 22 22 22 23 22
10 10 10 10 10 10 10 11 9 8 6 6 7 6 6 7 7 7 7 7 8 9 9 10 9 10 11 11 11 10 8 10 12 12 12 11 11 12 13 12 10 9 10 13 13 12 12 13 13 10 10 11 18 21 24 20 23 24 23 24 24 24 25 24 24 24 24 24 23 23 24 23 24 23
10 10 10 9 10 9 9 10 11 12 11 10 10 8 7 7 7 7 7 7 8 9 10 10 10 11 11 11 10 9 10 9 10 11 11 13 13 13 12 11 10 11 10 11 13 13 11 13 15 14 13 12 10 11 12 13 15 17 22 23 23 24 24 24 25 25 25 25 25 25 24 25 24 24
10 9 9 9 9 9 9 11 14 14 15 15 14 15 14 11 9 8 9 9 9 10 11 11 11 11 12 12 11 11 9 8 10 10 10 12 12 11 13 16 12 8 9 9 12 15 12 11 12 13 13 12 13 14 14 14 15 19 19 22 24 24 24 24 24 24 25 25 26 26 25 25 25 24
9 9 9 9 8 9 10 11 11 14 16 16 15 15 15 15 15 12 10 10 10 11 11 12 11 12 13 12 10 9 8 8 10 12 13 12 12 14 12 9 11 9 4 6 12 17 13 12 13 14 12 11 12 14 15 17 16 17 19 19 21 23 23 24 24 25 25 25 25 26 26 25 25 25
9 8 8 8 8 7 10 10 10 10 11 15 18 16 16 16 15 15 16 16 14 12 13 12 13 13 12 13 10 6 8 10 12 13 14 13 13 12 14 13 11 8 8 14 16 17 14 10 12 14 12 11 12 13 14 18 20 19 19 20 21 22 23 23 24 25 25 25 25 26 25 25 25 25
10 10 9 8 8 8 9 9 10 10 11 9 8 10 10 11 14 17 19 19 20 18 14 15 15 14 11 10 8 10 10 12 12 13 15 15 16 16 16 16 12 11 13 14 14 17 14 11 12 13 13 12 13 12 16 19 19 19 20 20 21 22 23 23 24 24 24 24 25 25 24 24 24 26
10 10 9 10 9 9 9 9 10 10 10 9 9 10 10 10 11 10 12 14 12 12 13 15 18 14 12 11 10 11 10 11 10 10 14 15 16 18 18 17 12 11 11 13 12 16 13 11 13 14 13 13 13 13 15 18 19 18 19 20 22 22 22 23 24 23 23 24 24 23 24 24 24 25
11 11 11 10 10 10 10 10 11 10 10 10 11 10 11 11 11 11 10 10 11 13 13 13 14 11 4 4 10 11 12 11 12 11 10 12 13 14 15 15 11 8 6 9 11 14 15 11 13 14 13 13 14 14 14 17 19 17 16 19 20 21 21 22 23 22 22 23 22 21 22 22 23 24
11 11 11 12 10 11 11 11 12 13 12 12 12 12 12 11 11 11 9 12 16 17 18 15 6 8 5 6 7 11 13 10 9 10 11 12 11 11 12 13 13 12 8 8 9 12 15 12 13 16 15 13 14 15 15 14 18 16 15 16 18 19 19 20 21 20 21 22 20 20 21 22 22 23
11 12 14 13 12 11 10 11 13 13 11 12 12 12 12 12 12 11 11 7 9 14 5 3 6 9 10 10 11 13 15 14 9 8 10 10 8 10 9 11 13 14 11 8 7 10 13 15 13 15 15 15 13 13 12 12 13 15 15 16 18 18 20 20 20 20 20 21 20 19 21 20 19 14
10 11 11 15 14 12 11 9 12 13 12 12 12 12 12 12 13 12 10 10 9 7 5 4 5 7 10 9 8 9 15 16 12 10 10 8 7 8 10 11 12 14 10 7 10 13 14 14 15 14 15 16 12 10 11 11 12 13 13 13 7 15 16 17 20 20 20 20 20 20 21 19 17 11
10 11 11 12 17 17 14 12 12 14 16 12 12 11 12 12 13 11 10 8 6 6 6 5 4 5 5 6 6 7 7 8 11 10 8 8 8 10 10 10 11 13 13 10 12 13 15 14 16 13 13 16 17 11 12 14 13 14 14 12 15 7 14 15 15 16 17 19 21 20 20 19 18 11
9 9 10 9 15 19 19 17 14 14 16 14 12 12 12 12 5 6 7 6 6 5 4 3 4 4 4 4 5 5 4 4 3 5 7 6 6 8 10 12 13 15 15 11 11 11 13 15 16 15 14 14 17 18 14 15 13 13 13 14 13 14 6 5 7 7 13 19 19 19 17 18 23 17
10 10 9 10 11 20 19 18 16 16 14 16 11 12 14 11 5 10 7 7 6 3 3 4 4 4 5 5 4 4 4 4 3 4 6 7 8 9 10 11 13 14 14 12 14 14 15 15 15 17 17 16 18 16 17 15 15 15 12 12 13 13 13 10 4 6 7 7 10 12 14 20 24 26
11 10 9 8 12 17 17 17 16 15 17 12 11 15 13 10 9 5 8 8 6 3 2 3 4 4 5 5 4 4 5 5 6 7 7 7 8 9 10 11 11 13 14 15 14 14 12 13 13 14 16 15 17 17 15 16 14 12 12 14 13 11 11 11 8 8 9 8 9 16 19 19 23 26
9 9 9 5 15 14 14 13 13 14 13 10 15 14 11 9 7 6 6 5 5 2 2 4 4 4 4 4 3 4 5 7 8 8 7 7 8 9 9 10 11 11 12 13 12 11 11 12 13 13 14 15 16 16 17 14 14 14 16 14 13 13 13 13 13 11 10 10 9 7 7 10 13 14
1 9 15 15 13 13 13 13 11 10 13 12 11 12 11 8 6 5 4 4 4 5 5 4 4 3 2 2 2 3 4 6 6 6 6 7 7 7 8 9 10 10 8 9 10 11 12 12 14 13 13 12 14 15 15 18 15 15 13 13 12 13 13 12 13 12 11 11 11 8 10 11 12 14
12 11 13 14 14 12 12 10 8 8 7 8 10 10 9 5 5 3 4 4 3 3 4 3 3 2 2 2 3 3 3 4 5 6 7 7 7 8 9 10 10 10 10 9 10 10 11 11 12 13 13 14 15 17 16 16 16 13 12 14 16 15 11 10 11 11 11 11 10 9 7 7 9 11
6 10 10 9 10 9 10 8 10 10 11 8 5 5 6 6 4 4 4 4 3 4 4 4 3 3 3 3 3 3 4 4 4 6 7 7 8 9 9 9 11 11 11 10 9 10 10 11 12 12 14 16 15 15 14 14 15 16 15 14 14 14 13 12 10 10 10 10 9 6 8 9 9 10
11 7 8 10 8 8 7 7 6 6 6 6 7 7 6 5 5 4 5 4 4 5 5 4 3 3 3 4 4 4 4 5 5 6 6 7 8 8 8 9 9 10 11 11 10 9 9 10 11 11 12 14 16 16 14 14 16 17 16 15 14 15 13 13 11 10 9 8 6 8 9 9 10 9
12 9 10 10 9 9 9 8 7 7 7 7 7 8 7 7 7 7 6 6 6 5 4 3 2 3 3 3 3 3 3 4 4 4 5 5 6 7 8 9 9 9 11 11 11 10 9 11 11 11 12 13 13 15 14 14 13 13 15 15 14 13 12 12 11 11 9 8 9 8 9 9 10 9
12 11 10 10 11 11 10 10 9 9 8 8 8 8 8 7 7 7 8 7 6 4 4 3 3 2 2 2 3 3 3 3 3 3 4 5 6 7 7 8 8 9 9 10 11 11 11 10 10 10 11 12 12 12 11 10 12 13 13 14 14 15 14 13 13 14 11 8 8 8 7 7 9 9
12 10 10 10 10 10 10 9 9 9 9 9 9 9 9 8 9 8 8 7 6 5 5 4 3 3 3 2 2 3 2 3 4 3 3 5 5 6 7 7 8 9 9 9 10 10 10 10 10 12 11 11 12 10 11 13 7 10 10 11 13 13 13 13 14 13 12 7 6 8 8 7 8 10
11 10 10 11 11 11 11 9 9 10 10 10 10 10 10 10 9 9 9 7 7 7 6 5 5 4 4 3 3 3 2 3 4 3 4 4 5 6 6 7 8 8 8 9 9 9 9 10 11 13 14 14 13 14 9 17 17 9 10 12 13 13 14 14 13 12 10 7 6 7 8 9 8 9
10 9 10 10 11 11 11 9 10 9 9 10 10 10 10 9 9 7 5 5 6 6 6 6 6 5 4 3 3 4 4 4 3 3 4 4 4 5 6 6 7 7 8 8 9 9 9 10 10 11 13 13 14 14 14 10 12 16 10 12 14 14 15 13 11 10 7 6 6 5 6 5 5 6
6 6 6 7 7 7 7 7 7 8 9 8 8 7 6 6 5 5 5 6 6 6 5 6 5 5 4 3 4 3 3 3 4 4 4 3 3 4 5 7 7 7 8 8 8 8 9 9 10 10 11 12 13 13 14 13 12 9 16 14 13 15 14 12 10 8 5 7 7 7 6 4 3 2
6 6 5 6 5 6 7 7 7 7 7 6 6 6 5 6 6 6 6 6 6 6 6 5 5 3 3 3 3 4 4 3 3 3 3 3 3 4 5 6 7 6 7 8 8 8 8 9 10 10 12 11 11 11 11 12 11 11 12 16 12 12 12 12 8 7 7 7 7 8 9 9 11 15
6 6 6 6 6 6 6 6 6 6 7 6 6 6 7 7 7 7 6 4 4 3 4 4 3 3 5 3 4 4 4 4 4 3 3 4 3 5 5 6 6 6 6 7 8 7 8 9 9 10 10 10 10 10 10 8 7 8 9 9 15 13 11 10 8 7 7 7 4 6 7 6 6 5
7 7 7 7 7 6 6 6 6 7 6 5 4 4 3 3 2 3 2 3 4 4 4 4 4 5 3 2 4 4 3 3 3 3 3 4 4 4 5 7 6 6 7 7 7 8 9 9 7 7 7 8 9 9 8 11 12 12 11 10 11 14 17 16 12 10 9 7 5 5 5 6 7 6
7 7 6 6 7 6 6 7 6 6 6 6 6 5 4 3 3 2 4 4 3 3 3 4 4 5 4 4 3 3 4 3 3 4 4 5 5 5 5 5 6 7 6 7 7 8 8 8 7 8 7 7 9 10 11 12 12 11 11 10 10 9 12 15 19 18 13 9 7 6 5 4 5 8
7 7 7 6 5 6 5 4 5 5 6 5 5 4 6 6 6 6 5 5 4 5 4 4 4 3 3 2 2 3 4 3 4 4 5 5 5 6 6 5 6 7 6 6 6 6 7 8 9 9 9 8 8 8 9 10 9 9 10 10 9 9 9 9 13 17 21 22 15 7 3 1 1 3
8 8 7 6 6 5 5 5 5 5 5 5 5 4 4 5 5 4 3 3 4 4 3 3 3 3 3 2 2 4 3 3 5 6 5 5 5 5 6 6 6 7 7 6 7 6 6 8 8 9 10 10 8 7 7 8 8 8 8 8 8 8 8 7 8 10 14 20 21 17 15 14 14 12
8 8 8 7 7 6 5 5 5 5 6 6 6 5 4 3 3 3 3 2 3 2 4 3 3 2 3 3 3 5 5 5 7 6 6 7 6 6 6 7 7 7 7 7 8 8 7 7 7 6 7 8 9 8 5 4 6 6 7 7 7 7 7 7 8 9 10 11 18 18 18 18 17 18
Wind_Direction
227 223 219 232 237 246 248 261 254 259 282 271 264 266 274 280 281 294 304 303 310 325 312 316 136 166 220 233 232 219 232 237 225 239 238 243 248 224 210 218 222 224 227 229 230 231 231 233 234 234 234 235 235 233 233 233 234 235 237 238 239 239 238 237 236 235 232 219 216 216 224 229 231 233
226 239 226 212 228 227 232 226 234 222 215 235 230 233 241 241 261 281 292 296 299 296 286 267 207 161 215 223 229 247 249 235 215 248 252 250 251 246 220 218 222 225 228 230 231 232 232 233 234 234 235 235 236 235 234 234 234 235 236 237 237 237 238 239 238 238 236 231 220 216 220 227 229 230
227 225 232 226 235 232 240 251 243 206 211 223 233 238 232 236 244 265 273 284 276 294 292 298 302 277 231 258 271 260 254 234 221 243 250 249 251 253 242 226 226 228 229 231 232 233 234 235 235 235 234 235 236 236 236 235 235 235 236 237 236 237 238 239 239 238 237 234 224 222 218 223 226 226
221 223 224 225 234 228 230 236 242 229 222 230 234 230 227 229 232 240 254 263 277 277 287 292 285 267 263 254 255 261 263 260 211 242 247 250 249 245 250 235 225 229 230 232 232 233 235 236 237 236 236 236 236 237 236 236 237 237 237 238 238 237 237 237 237 236 237 235 231 226 220 218 221 223
226 224 228 229 231 233 232 232 236 235 221 221 228 230 229 233 227 225 237 258 272 272 265 273 277 282 280 276 268 269 270 268 256 227 239 247 249 249 249 252 227 222 227 229 232 234 235 236 237 238 238 239 239 239 238 237 237 237 237 238 238 238 238 236 234 235 235 233 231 227 222 215 217 219
236 228 228 229 227 224 230 237 239 237 238 224 226 221 229 238 233 221 237 248 266 277 273 266 267 274 265 268 258 262 269 274 273 270 265 254 246 248 254 252 253 221 222 225 229 232 235 237 237 239 240 241 241 241 242 241 239 237 237 237 237 237 237 236 234 234 233 232 229 226 222 217 215 214
227 230 227 227 225 222 223 225 237 245 243 246 244 241 239 240 240 231 224 244 260 271 277 276 276 272 270 269 276 269 268 269 267 266 264 261 261 256 252 256 261 251 223 224 228 233 236 238 240 242 243 244 244 244 245 244 243 241 238 236 235 235 235 234 234 232 232 230 228 226 223 218 214 213
226 229 229 232 229 224 226 231 236 236 237 236 235 240 239 243 245 245 237 231 253 273 283 280 280 286 284 278 273 272 265 266 265 261 266 264 265 266 268 267 267 263 252 232 231 235 237 238 240 241 242 242 242 243 244 243 243 242 240 238 236 235 232 232 230 229 229 228 226 224 223 219 215 212
231 231 234 233 228 225 229 230 232 234 227 227 234 234 234 237 243 250 253 257 263 272 276 284 283 286 280 277 276 273 274 271 267 261 259 266 272 273 273 275 271 271 252 235 232 234 235 238 239 240 240 240 241 242 242 242 242 241 241 239 238 236 234 232 228 227 226 224 222 221 219 218 215 211
226 231 230 232 230 228 228 233 234 235 232 229 233 235 235 237 244 251 255 260 262 267 274 282 287 281 280 280 272 270 268 271 276 272 268 273 273 274 276 274 277 282 282 282 237 224 232 237 240 242 240 240 242 243 243 243 242 242 241 239 238 237 235 233 230 227 224 222 220 217 215 215 212 210
225 227 229 229 229 230 229 232 234 232 232 235 241 237 236 236 241 247 252 253 259 268 276 280 277 281 276 274 278 268 263 266 266 280 292 287 275 270 275 276 271 271 278 269 254 256 267 271 261 231 230 236 237 240 240 239 238 238 236 236 235 235 234 232 230 228 224 221 219 216 214 213 211 209
230 229 230 229 226 228 229 230 232 234 237 239 242 241 233 232 236 252 262 268 270 272 274 277 283 283 284 275 266 268 265 272 272 265 285 296 300 298 290 287 291 291 288 288 288 259 236 239 243 248 247 233 229 234 236 236 236 233 233 232 234 233 232 231 229 227 225 221 218 216 213 211 211 208
228 234 235 233 234 226 223 226 234 244 252 243 247 246 239 237 248 256 263 267 267 269 270 272 272 271 268 269 274 272 271 282 293 304 302 293 292 299 301 300 294 286 286 292 291 291 293 286 281 278 258 234 221 232 232 240 234 233 231 230 231 230 230 228 226 225 224 221 217 215 213 211 210 208
227 229 234 238 229 226 211 208 216 227 235 239 249 258 252 247 248 248 246 253 259 264 267 268 268 269 269 273 274 284 292 295 293 297 303 302 306 306 299 296 295 302 299 295 294 293 294 293 294 290 284 287 251 251 235 231 233 227 224 230 231 233 232 229 225 222 221 219 217 215 212 211 209 207
230 230 229 238 222 203 204 210 214 223 226 228 231 241 251 260 260 259 251 251 257 260 262 266 266 268 273 272 278 287 298 302 306 301 296 297 301 301 306 307 308 301 300 293 290 290 288 292 285 282 283 280 280 280 263 253 227 228 220 219 224 228 230 230 228 227 224 219 216 215 212 210 208 205
226 228 230 227 229 225 222 229 221 222 228 229 229 234 239 240 245 247 253 256 255 255 260 264 267 274 275 278 278 289 303 307 297 293 295 294 296 299 296 295 297 311 329 298 299 292 292 294 286 282 278 278 275 270 269 264 244 228 226 221 223 225 228 228 226 226 224 221 219 216 213 210 207 204
225 224 223 229 228 233 201 216 236 244 232 220 226 229 234 241 238 236 239 244 249 261 265 267 267 262 266 274 281 298 305 297 294 298 297 298 298 298 296 291 296 309 328 304 294 291 292 292 283 282 281 283 277 273 260 249 245 239 227 222 224 227 227 228 227 225 223 220 218 218 214 210 206 203
223 221 223 221 224 225 223 223 230 240 249 254 222 213 222 234 227 220 225 228 233 240 249 254 257 256 253 263 282 291 287 287 289 294 294 298 299 298 292 294 298 298 294 286 290 287 283 282 282 279 285 286 280 273 267 263 252 237 232 225 224 226 227 230 229 226 225 222 219 215 213 210 206 204
227 223 221 224 226 224 224 224 224 236 244 244 252 255 243 233 245 238 216 209 213 217 227 238 247 254 262 265 270 276 282 280 279 286 294 298 297 296 297 294 283 276 268 268 272 280 285 287 284 282 286 286 283 279 274 259 254 245 232 228 227 227 226 230 232 228 225 226 222 215 212 209 208 206
227 226 226 225 225 225 227 221 217 235 248 255 260 258 256 258 254 251 245 234 191 209 217 225 241 252 249 233 265 280 288 290 289 294 294 292 288 294 300 298 302 291 280 272 278 283 287 290 289 290 289 289 284 282 280 272 259 248 237 231 229 229 227 229 232 231 227 228 223 216 212 210 209 208
228 225 222 224 226 226 227 218 198 214 228 249 257 262 264 263 263 261 254 205 204 217 227 235 273 10 335 274 270 275 278 269 281 287 286 278 279 286 291 295 301 299 303 293 285 288 291 297 297 295 295 294 290 286 282 281 278 268 250 237 232 229 228 229 231 230 229 230 226 216 212 209 209 208
229 227 219 223 226 230 229 211 194 206 205 237 248 257 263 262 258 257 257 253 205 219 245 292 273 261 264 258 252 253 253 252 241 239 250 267 282 282 282 288 296 300 305 305 324 305 293 305 302 298 298 293 285 287 290 294 291 283 270 241 230 226 221 225 226 227 226 229 226 218 213 208 203 202
226 229 214 209 221 227 233 204 193 194 199 231 246 254 260 260 261 260 265 264 267 242 212 215 218 239 226 231 240 238 227 228 211 222 244 274 280 286 293 297 302 303 305 333 336 303 301 305 303 306 306 300 296 292 297 300 304 305 306 303 265 213 225 223 227 223 224 226 222 218 211 204 188 196
223 225 231 205 199 217 224 216 187 188 199 225 244 252 252 259 260 267 267 278 300 306 324 304 306 304 296 284 265 252 239 211 196 211 232 260 276 288 294 297 298 295 299 311 319 307 304 303 299 308 301 304 306 308 305 301 302 307 308 305 307 239 207 228 231 231 228 226 224 220 209 195 181 189
227 226 226 239 187 200 212 214 193 189 202 219 240 246 252 255 318 350 287 266 95 267 281 294 288 295 286 266 265 265 262 279 258 231 250 303 310 308 301 300 298 292 296 311 359 314 305 305 301 306 300 296 294 300 305 306 305 311 313 306 303 306 309 231 227 231 217 228 231 223 207 190 186 191
232 233 232 244 185 188 202 212 200 198 200 216 228 247 259 282 293 268 272 276 276 286 308 311 305 304 303 302 305 301 294 297 309 323 326 319 309 296 291 291 294 294 297 311 331 311 306 300 303 306 303 302 298 298 304 304 304 303 307 311 309 308 305 310 241 242 237 214 224 217 206 194 193 199
233 235 233 232 157 180 191 200 197 196 206 209 227 241 255 254 245 248 259 274 282 288 320 326 313 303 293 294 300 313 330 328 340 329 324 313 301 292 288 288 287 289 297 307 311 310 305 300 305 303 302 302 299 300 296 301 308 315 308 305 307 305 298 297 269 250 234 211 220 203 204 196 198 200
225 232 232 183 140 160 170 179 182 188 186 201 214 223 221 220 226 243 251 241 229 179 232 236 247 253 262 286 305 333 341 331 329 319 309 295 290 294 302 302 300 300 304 303 306 311 307 300 300 300 299 300 301 300 302 303 301 308 305 303 302 299 297 295 297 293 264 240 229 198 169 201 207 204
349 82 97 110 124 132 146 153 160 170 188 201 182 186 187 197 229 226 238 232 188 208 211 220 223 231 237 275 318 350 329 315 304 304 309 319 317 313 311 311 308 306 305 309 311 310 312 312 307 305 302 296 294 295 298 297 300 299 297 302 293 293 295 291 294 291 284 264 252 202 187 194 198 199
115 117 114 122 128 131 136 145 161 173 160 167 162 169 181 198 223 248 249 238 240 263 266 274 294 294 322 326 4 344 309 324 332 330 327 325 328 338 333 328 320 318 315 314 313 314 313 317 315 310 302 294 289 291 293 294 293 290 293 291 292 294 283 285 287 287 275 266 254 222 211 193 186 178
122 145 152 151 157 144 163 139 113 114 121 126 136 159 187 200 219 234 244 260 278 282 292 286 286 312 337 346 331 333 347 328 337 345 340 334 339 335 334 323 317 321 321 321 320 313 316 319 319 309 300 296 291 287 286 285 284 292 294 295 299 296 298 298 286 276 277 268 261 240 219 203 196 183
200 160 122 125 128 122 122 113 123 131 140 143 154 165 178 196 213 232 262 268 264 269 270 296 324 324 332 320 344 338 339 350 347 352 346 341 328 326 323 316 317 316 318 323 321 319 316 326 322 315 306 303 304 304 302 296 294 296 298 298 297 297 298 298 303 300 274 259 238 223 205 191 190 182
195 176 175 178 160 158 152 141 142 147 155 156 161 165 177 190 198 199 204 212 220 219 242 255 277 293 309 319 326 328 327 350 339 344 339 322 313 313 313 309 313 318 318 318 319 320 327 332 328 319 314 311 310 310 310 311 308 304 304 308 311 309 307 308 305 302 298 270 254 234 214 202 196 182
185 184 193 186 179 172 167 164 159 160 160 160 169 177 178 179 185 193 198 205 204 201 222 226 243 260 278 283 303 311 314 327 323 320 305 305 312 308 309 311 313 317 313 313 319 327 335 335 333 328 324 318 316 316 317 332 340 347 349 338 336 330 327 325 325 323 309 278 265 240 212 209 202 190
188 182 192 184 180 177 176 166 162 158 159 164 170 173 175 185 183 191 199 199 194 192 203 212 220 206 232 248 262 282 291 303 298 290 280 282 289 299 307 309 318 320 320 318 326 334 336 337 339 339 335 336 335 333 37 46 4 6 345 339 333 325 319 315 311 309 312 295 258 244 226 214 209 205
192 189 188 184 182 179 179 162 156 164 166 167 174 174 179 186 178 193 202 185 186 189 191 192 195 202 208 216 228 254 262 282 270 281 282 282 297 305 303 309 315 319 322 329 332 334 337 336 346 348 345 346 345 341 349 67 61 28 10 339 330 323 314 312 308 302 302 289 254 236 235 229 218 196
189 190 191 185 181 181 179 158 160 161 163 173 180 182 185 178 178 187 140 161 201 189 184 184 188 197 200 220 221 233 244 251 258 267 275 281 292 306 308 314 319 320 325 332 335 344 344 344 351 353 350 346 346 342 339 344 73 74 32 353 333 324 320 311 306 304 302 296 271 246 256 251 228 196
196 179 167 163 162 165 144 140 147 158 170 183 177 172 163 153 137 121 150 187 192 181 166 199 176 201 212 188 235 229 246 246 259 257 268 268 299 315 319 323 320 325 326 329 341 345 348 350 355 360 354 350 342 344 337 345 345 28 48 19 346 327 324 319 314 321 26 31 33 19 11 17 51 98
87 96 107 117 112 118 125 135 139 133 133 132 130 136 140 140 151 165 184 193 189 186 175 192 183 193 209 215 232 240 238 261 266 271 285 280 297 307 312 323 312 319 321 335 343 348 355 357 2 358 356 351 347 338 340 334 348 346 16 36 5 342 337 329 346 18 22 33 47 56 59 68 67 79
83 88 93 104 103 101 106 117 132 143 147 147 141 144 156 170 169 171 164 166 185 199 188 169 167 189 216 218 246 240 231 241 257 283 303 296 313 309 321 320 313 324 322 340 343 352 357 4 3 358 350 352 345 339 332 332 335 353 353 31 27 17 359 347 3 4 24 28 47 74 79 71 91 92
109 104 109 116 120 126 131 130 129 131 125 109 98 89 91 96 136 124 109 146 166 188 190 176 188 221 217 222 235 268 270 275 288 293 305 296 305 311 313 298 320 333 330 341 347 351 1 4 4 308 325 351 353 339 348 353 354 355 1 9 30 23 27 36 29 23 22 20 34 63 85 104 121 120
123 117 122 132 135 140 143 146 142 139 137 140 140 145 141 132 102 125 147 144 193 205 214 190 186 217 211 219 240 248 264 290 303 300 300 310 319 315 315 324 336 334 333 343 347 352 355 359 2 359 359 1 2 358 1 356 349 350 356 0 8 30 39 36 45 47 44 21 12 32 51 92 120 130
126 129 129 129 131 135 130 130 135 132 131 136 139 150 167 171 160 179 191 165 188 202 201 196 205 215 221 232 255 276 278 287 304 299 304 307 312 314 318 330 337 328 330 335 334 341 357 346 6 2 2 6 6 3 359 354 353 351 356 2 8 14 29 47 50 48 40 32 25 27 22 34 255 159
130 129 129 124 122 111 118 145 144 130 130 145 155 172 181 176 170 171 181 169 192 196 202 210 213 218 230 242 271 276 279 306 305 292 297 302 303 309 312 317 324 329 324 334 325 340 359 349 7 357 354 2 360 0 1 350 358 7 7 14 19 24 36 30 35 42 46 37 21 20 44 73 79 76
105 108 109 106 107 108 113 116 123 134 144 153 169 163 168 173 170 183 171 185 206 201 216 225 224 230 235 259 278 289 312 297 276 285 293 297 304 301 306 310 322 326 322 332 321 334 349 335 0 1 352 354 353 1 2 354 342 2 17 21 28 31 36 23 27 37 42 50 23 26 44 48 64 82